This demonstration page uses our WeatherBlox Daily Observations layout. Learn more.

Left ArrowRight Arrow

Hourly Observations for February 19, 2019

Temp ( °F °C ) Dew Point ( °F °C ) Humidity (%) Winds ( mph kmh ) Pressure ( in mb ) Visibility ( mi km ) Precip ( " mm )
12:53 am 00:53 Clear 21 -6.1 16 -8.9 81 81 N N/A 30.57 1035 10 16.0934 N/A
1:53 am 01:53 Clear 21 -6.1 16 -8.9 81 81 N N/A 30.58 1035 10 16.0934 N/A
2:53 am 02:53 Clear 23 -5 19 -7.2 85 85 N N/A 30.59 1036 10 16.0934 N/A
3:53 am 03:53 Clear 20 -6.7 16 -8.9 85 85 N N/A 30.61 1037 10 16.0934 N/A
4:53 am 04:53 Clear 20 -6.7 16 -8.9 85 85 N N/A 30.63 1037 9 14.48406 N/A
5:53 am 05:53 Clear 20 -6.7 15 -9.4 81 81 N N/A 30.63 1037 8 12.87472 N/A
6:53 am 06:53 Clear 20 -6.7 15 -9.4 81 81 N N/A 30.65 1038 8 12.87472 N/A
7:53 am 07:53 Sunny with Mist and Fog 20 -6.7 16 -8.9 85 85 N N/A 30.66 1038 6 9.65604 N/A
8:53 am 08:53 Sunny 25 -3.9 21 -6.1 85 85 N N/A 30.68 1039 7 11.26538 N/A
9:53 am 09:53 Sunny 27 -2.8 23 -5 85 85 N N/A 30.7 1040 7 11.26538 N/A
10:53 am 10:53 Mostly Cloudy 30 -1.1 21 -6.1 69 69 E 7 11 30.68 1039 10 16.0934 N/A
11:15 am 11:15 Partly Cloudy 31 -0.6 21 -6.1 67 67 VRB 6 9 30.68 1039 10 16.0934 N/A
11:53 am 11:53 Sunny 32 undefined 21 -6.1 64 64 E 8 13 30.66 1038 10 16.0934 N/A
12:53 pm 12:53 Sunny 34 1.1 21 -6.1 59 59 SE 5 7 30.62 1037 10 16.0934 N/A
1:53 pm 13:53 Sunny 36 2.2 21 -6.1 55 55 ESE 5 7 30.58 1036 10 16.0934 N/A
2:53 pm 14:53 Sunny 36 2.2 22 -5.6 57 57 ENE 8 13 30.55 1035 10 16.0934 N/A
3:53 pm 15:53 Sunny 36 2.2 24 -4.4 62 62 E 13 20 30.53 1034 10 16.0934 N/A
4:53 pm 16:53 Sunny 35 1.7 23 -5 61 61 E 10 17 30.53 1034 10 16.0934 N/A
5:53 pm 17:53 Sunny 34 1.1 24 -4.4 67 67 E 9 15 30.51 1033 10 16.0934 N/A
6:53 pm 18:53 Clear 33 0.6 23 -5 66 66 ENE 12 19 30.48 1032 10 16.0934 N/A
7:53 pm 19:53 Clear 33 0.6 24 -4.4 70 70 E 10 17 30.48 1032 10 16.0934 N/A
8:53 pm 20:53 Clear 33 0.6 24 -4.4 70 70 E 10 17 30.44 1031 10 16.0934 N/A
9:53 pm 21:53 Clear 33 0.6 24 -4.4 70 70 NE 7 11 30.41 1030 10 16.0934 N/A
10:53 pm 22:53 Cloudy 33 0.6 25 -3.9 72 72 E 7 11 30.4 1029 10 16.0934 N/A
11:53 pm 23:53 Cloudy with Light Snow 33 0.6 25 -3.9 72 72 ESE 8 13 30.38 1029 4 6.43736 N/A

Powered by AerisWeather